Starlink 36157

operational
NORAD ID: 66933 Int'l Des: 2025-286 Owner: SPXS Country: US Constellation: starlink
LEOCIRCULAR

关于 Starlink 36157

正在加载描述...

实时位置

正在加载3D地球...

即将过境

高度历史

Altitude vs Time

uPlot chart will show altitude changes over time

两行轨道根数

1 66933U 25286J 25347.58336806 -.01225087 46032-3 -29180-2 0 9997
2 66933 53.1573 46.4257 0000928 59.3664 232.0037 15.96004054 2129
Epoch: Dec 13, 2025 • Age: 19 hours

当前状态

高度 291.8 km
速度 7.74 km/s
星下点 26.93°N, 17.25°W
发射日期 Dec 7, 2025
运行时间 6 days
类型 internet

技术详情

分类 Payload
质量 575.00 kg
干质量 530.00 kg
总质量 575.00 kg
长度 0.30 m
直径 4.10 m
跨度 29.00 m
形状 Box + pan
制造商 SPXS
平台类型 Starlink V2MO
阶段状态 In Orbit
所有者/国家 SPXS/US

大型星座

Loading constellations...